Probability
3 13 77 90 90 90 94 94 97 97 97 94 94 94 97 100 100 100 100 90 87 87 87 90 94 94 94 97 97 94 90 94 97 90 94 97 94 94 100 100 100 100 94
3 32 77 81 90 94 90 87 84 84 87 84 84 87 97 100 100 100 94 87 84 90 87 84 90 90 94 94 97 94 90 90 94 90 90 90 90 97 97 100 100 100 97
26 55 68 71 77 77 84 84 84 84 87 81 84 87 90 100 100 100 100 97 87 81 74 81 81 84 90 90 90 84 90 87 90 90 94 81 77 90 90 90 97 94 94
32 48 48 68 71 71 74 77 77 77 81 84 87 87 90 94 97 97 100 94 81 84 84 77 81 74 74 81 74 77 84 84 84 84 58 58 71 81 84 87 97 97 90
39 42 45 65 65 68 65 61 65 71 74 81 87 90 90 90 94 100 100 94 90 87 84 84 84 77 74 65 68 77 81 84 84 61 35 35 45 87 81 87 90 90 94
23 26 29 55 52 58 61 52 52 55 58 68 77 84 87 87 90 94 97 97 90 81 81 81 74 68 71 68 71 74 77 68 55 19 19 32 39 77 81 87 90 94 87
10 16 16 39 35 39 39 42 42 45 39 45 48 58 68 84 84 81 81 87 84 84 84 84 71 68 65 65 71 65 74 65 19 6 6 23 42 81 77 84 84 81 84
6 6 10 19 13 13 16 23 19 29 32 39 39 45 55 58 58 74 81 74 84 84 77 81 81 77 65 71 65 65 74 74 35 19 16 16 52 90 71 81 81 81 87
3 3 3 3 3 6 10 6 10 13 13 23 26 29 39 42 45 55 68 77 74 77 81 81 74 81 71 68 65 65 68 84 16 10 16 19 48 84 74 77 87 81 87
0 3 0 0 0 0 0 0 0 0 0 10 13 19 23 29 23 39 45 35 58 68 68 68 71 65 68 65 65 68 77 71 23 10 10 19 65 81 81 77 84 84 87
0 0 0 0 0 0 0 0 0 0 0 0 3 3 6 3 3 3 16 32 35 42 58 61 55 52 71 65 65 61 71 35 13 0 6 23 65 77 81 71 84 87 87
0 0 0 0 0 0 0 0 0 0 0 0 0 0 0 0 0 3 6 19 23 26 32 48 55 45 48 29 32 48 32 19 6 0 3 42 77 77 74 77 87 84 84
0 0 0 0 0 0 0 0 0 0 0 0 0 0 0 0 0 3 3 3 3 3 3 6 19 23 10 16 10 13 10 3 3 0 0 52 87 81 74 84 90 87 84
0 0 0 0 0 0 0 0 0 0 0 0 0 0 0 0 0 0 0 0 0 0 0 0 0 6 3 0 0 0 3 3 3 0 0 23 74 77 81 84 87 84 81
0 0 0 0 0 0 0 0 0 0 0 0 0 0 0 0 0 0 0 0 0 0 0 0 0 0 0 0 0 0 0 0 0 0 0 6 65 94 90 87 90 84 84
0 0 0 0 0 0 0 0 0 0 0 0 0 0 0 0 0 0 0 0 0 0 0 0 0 0 0 0 0 0 0 0 0 0 0 0 29 74 97 97 94 87 87
0 0 0 0 0 0 0 0 0 0 0 0 0 0 0 0 0 0 0 0 0 0 0 0 0 0 0 0 0 0 0 0 0 0 0 0 0 26 71 100 100 97 97
0 0 0 0 0 0 0 0 0 0 0 0 0 0 0 0 0 0 0 0 0 0 0 0 0 0 0 0 0 0 0 0 0 0 0 0 0 0 16 71 87 97 97
0 0 0 0 0 0 0 0 0 0 0 0 0 0 0 0 0 0 0 0 0 0 0 0 0 0 0 0 0 0 0 0 0 0 0 0 0 0 0 19 68 81 100
0 0 0 0 0 0 0 0 0 0 0 0 0 0 0 0 0 0 0 0 0 0 0 0 0 0 0 0 0 0 0 0 0 0 0 0 0 0 0 3 13 19 84
0 0 0 0 0 0 0 0 0 0 0 0 0 0 0 0 0 0 0 0 0 0 0 0 0 0 0 0 0 0 0 0 0 0 0 0 0 0 0 0 0 0 10
0 0 0 0 0 0 0 0 0 0 0 0 0 0 0 0 0 0 0 0 0 0 0 0 0 0 0 0 0 0 0 0 0 0 0 0 0 0 0 0 0 0 0
0 0 0 0 0 0 0 0 0 0 0 0 0 0 0 0 0 0 0 0 0 0 0 0 0 0 0 0 0 0 0 0 0 0 0 0 0 0 0 0 0 0 0
0 0 0 0 0 0 0 0 0 0 0 0 0 0 0 0 0 0 0 0 0 0 0 0 0 0 0 0 0 0 0 0 0 0 0 0 0 0 0 0 0 0 0
0 0 0 0 0 0 0 0 0 0 0 0 0 0 0 0 0 0 0 0 0 0 0 0 0 0 0 0 0 0 0 0 0 0 0 0 0 0 0 0 0 0 0
0 0 0 0 0 0 0 0 0 0 0 0 0 0 0 0 0 0 0 0 0 0 0 0 0 0 0 0 0 0 0 0 0 0 0 0 0 0 0 0 0 0 0
Height
5876 5875 5874 5873 5872 5871 5870 5870 5869 5868 5868 5867 5867 5867 5867 5867 5868 5868 5869 5870 5871 5871 5872 5873 5874 5875 5876 5877 5877 5878 5879 5879 5880 5881 5881 5882 5883 5883 5883 5883 5883 5883 5883
5875 5874 5873 5872 5871 5870 5868 5867 5867 5866 5865 5865 5865 5865 5865 5865 5866 5866 5867 5867 5868 5869 5869 5870 5871 5872 5873 5874 5875 5876 5876 5877 5878 5879 5879 5880 5881 5881 5882 5882 5882 5882 5882
5872 5872 5871 5869 5868 5867 5866 5865 5864 5863 5863 5862 5862 5862 5862 5863 5863 5864 5864 5865 5865 5866 5867 5868 5868 5869 5870 5871 5872 5873 5874 5875 5875 5876 5877 5878 5878 5879 5880 5880 5881 5881 5881
5870 5868 5867 5866 5865 5864 5862 5861 5860 5860 5859 5859 5859 5859 5859 5859 5860 5860 5861 5862 5862 5863 5864 5865 5866 5867 5868 5869 5869 5870 5871 5872 5873 5874 5875 5875 5876 5877 5878 5878 5879 5879 5880
5866 5865 5863 5862 5861 5859 5858 5857 5856 5855 5855 5855 5855 5855 5855 5855 5856 5857 5858 5858 5859 5860 5861 5862 5863 5864 5865 5866 5867 5868 5869 5869 5870 5871 5872 5873 5874 5875 5875 5876 5877 5878 5879
5863 5861 5860 5858 5856 5855 5854 5853 5852 5851 5850 5850 5850 5850 5850 5851 5852 5852 5854 5855 5856 5857 5858 5859 5860 5861 5862 5863 5864 5865 5866 5867 5868 5869 5870 5871 5871 5872 5873 5874 5875 5876 5878
5859 5857 5855 5853 5851 5850 5849 5847 5846 5846 5845 5845 5845 5845 5845 5846 5847 5848 5849 5851 5852 5853 5854 5855 5857 5858 5859 5861 5862 5863 5864 5864 5866 5867 5868 5869 5869 5870 5871 5872 5873 5875 5876
5855 5853 5850 5848 5846 5844 5843 5841 5840 5840 5839 5838 5839 5839 5840 5841 5842 5843 5844 5845 5847 5848 5850 5852 5853 5855 5856 5858 5859 5860 5861 5862 5863 5865 5866 5866 5867 5868 5869 5870 5872 5874 5875
5850 5848 5846 5843 5841 5839 5837 5836 5834 5833 5832 5832 5832 5832 5833 5834 5835 5837 5838 5840 5841 5843 5845 5847 5849 5851 5853 5854 5856 5857 5859 5860 5861 5862 5864 5865 5866 5867 5868 5869 5871 5872 5874
5846 5843 5841 5838 5836 5834 5832 5830 5828 5827 5826 5826 5825 5825 5826 5827 5828 5830 5832 5834 5836 5838 5839 5842 5844 5846 5848 5850 5852 5854 5856 5858 5859 5860 5861 5863 5864 5865 5866 5868 5869 5871 5873
5842 5839 5837 5834 5832 5829 5827 5825 5823 5822 5820 5820 5819 5819 5819 5820 5822 5823 5825 5827 5829 5831 5834 5836 5838 5841 5843 5846 5848 5851 5853 5855 5857 5858 5859 5861 5862 5864 5865 5866 5868 5870 5872
5839 5836 5833 5831 5828 5825 5823 5820 5818 5816 5815 5814 5813 5813 5813 5813 5814 5816 5818 5820 5823 5825 5827 5830 5833 5836 5838 5841 5844 5847 5850 5852 5854 5856 5858 5859 5860 5862 5863 5865 5867 5869 5871
5837 5834 5830 5827 5824 5821 5818 5816 5814 5812 5810 5808 5807 5807 5806 5807 5808 5809 5811 5814 5816 5819 5822 5824 5827 5830 5833 5837 5840 5843 5846 5849 5851 5853 5855 5857 5859 5860 5862 5864 5866 5868 5870
5834 5831 5828 5824 5821 5818 5815 5812 5809 5807 5805 5803 5802 5801 5800 5800 5801 5803 5805 5807 5810 5813 5816 5819 5822 5825 5828 5832 5836 5839 5842 5845 5848 5851 5853 5855 5857 5859 5861 5863 5865 5867 5868
5832 5829 5825 5822 5818 5815 5812 5808 5806 5803 5801 5799 5797 5796 5795 5795 5795 5796 5798 5801 5803 5806 5809 5813 5816 5820 5823 5827 5831 5835 5838 5842 5845 5848 5850 5853 5855 5857 5859 5861 5863 5865 5867
5830 5827 5823 5820 5816 5813 5809 5806 5803 5800 5797 5794 5792 5791 5790 5790 5790 5791 5793 5795 5797 5800 5803 5807 5810 5814 5818 5822 5826 5830 5833 5837 5841 5844 5847 5850 5852 5855 5857 5859 5861 5863 5865
5829 5826 5822 5819 5815 5811 5807 5804 5800 5797 5794 5791 5789 5787 5786 5786 5786 5787 5788 5790 5792 5795 5798 5801 5805 5808 5812 5816 5820 5825 5829 5832 5836 5840 5843 5846 5849 5852 5854 5857 5859 5861 5864
5829 5826 5822 5819 5815 5811 5806 5803 5799 5796 5792 5789 5787 5785 5783 5782 5782 5783 5784 5786 5788 5790 5792 5796 5799 5803 5807 5810 5814 5819 5824 5828 5831 5835 5839 5843 5846 5849 5852 5854 5856 5859 5861
5829 5826 5823 5819 5815 5811 5806 5803 5799 5795 5792 5788 5786 5783 5781 5780 5779 5779 5780 5782 5784 5786 5788 5791 5794 5798 5801 5805 5809 5814 5818 5822 5826 5830 5834 5838 5842 5845 5848 5851 5853 5856 5859
5829 5826 5823 5819 5815 5811 5807 5803 5799 5795 5792 5788 5785 5782 5780 5778 5777 5777 5778 5779 5780 5782 5784 5786 5789 5792 5796 5800 5804 5808 5812 5817 5821 5825 5829 5833 5837 5840 5843 5847 5850 5853 5856
5829 5826 5823 5820 5816 5812 5808 5805 5800 5796 5792 5789 5785 5782 5780 5778 5776 5776 5776 5776 5778 5779 5780 5782 5785 5788 5791 5795 5799 5803 5807 5811 5815 5819 5823 5827 5831 5835 5839 5842 5846 5849 5852
5829 5827 5824 5820 5817 5813 5810 5806 5802 5798 5794 5790 5786 5783 5780 5778 5776 5775 5775 5775 5775 5776 5777 5779 5781 5784 5787 5790 5794 5798 5801 5806 5809 5813 5817 5821 5825 5829 5833 5837 5841 5844 5848
5830 5827 5824 5821 5818 5814 5811 5807 5803 5799 5795 5791 5788 5784 5781 5778 5776 5775 5774 5774 5773 5774 5775 5776 5778 5780 5783 5786 5789 5793 5796 5800 5803 5808 5811 5815 5819 5823 5827 5831 5835 5839 5842
5830 5827 5825 5822 5818 5815 5812 5808 5804 5801 5797 5793 5789 5785 5782 5779 5777 5775 5774 5773 5772 5772 5773 5773 5775 5777 5779 5781 5784 5787 5791 5794 5797 5801 5805 5808 5812 5816 5821 5825 5829 5833 5837
5830 5827 5825 5822 5819 5816 5813 5809 5805 5802 5798 5794 5790 5787 5783 5780 5778 5776 5774 5773 5772 5771 5771 5771 5772 5774 5775 5777 5779 5782 5785 5787 5791 5794 5798 5802 5805 5809 5814 5818 5822 5826 5830
5829 5827 5825 5822 5819 5816 5813 5810 5806 5803 5799 5795 5791 5788 5785 5782 5779 5776 5774 5773 5771 5770 5770 5770 5770 5771 5772 5773 5775 5777 5779 5781 5784 5788 5791 5794 5798 5802 5806 5810 5814 5818 5822
Wind_Speed
9 10 9 10 10 11 12 12 12 11 10 10 9 8 7 7 8 8 9 10 10 11 11 11 12 12 13 13 13 13 14 14 14 14 14 13 13 12 11 10 9 8 6
10 12 11 11 12 13 14 14 14 14 13 12 12 11 10 10 10 10 10 10 11 11 11 11 12 12 13 13 14 14 14 14 15 15 15 14 14 13 12 11 9 8 6
12 14 14 15 15 16 16 17 17 16 16 16 15 14 14 13 13 12 12 11 12 12 12 12 12 12 13 13 13 14 14 14 14 15 15 15 14 14 12 11 9 8 6
16 17 17 18 19 19 19 19 20 20 19 19 19 18 17 16 16 15 15 14 13 12 12 12 12 12 12 12 12 13 13 13 14 14 15 14 14 13 12 11 10 8 6
18 19 20 21 21 22 22 22 23 23 22 22 21 21 20 19 19 18 18 16 15 14 13 13 13 12 12 12 12 12 13 13 13 13 13 13 13 13 12 11 9 7 6
21 22 23 23 24 25 25 25 25 26 26 26 25 24 23 22 21 21 20 19 18 17 16 15 14 13 13 13 12 12 13 13 13 12 12 12 12 12 11 10 8 7 7
22 24 25 26 26 26 27 27 28 28 29 29 29 28 26 25 24 23 23 22 21 20 19 17 16 15 14 13 12 12 12 12 12 12 12 11 11 10 10 9 8 8 8
23 24 25 26 26 26 26 27 27 28 29 29 30 30 29 28 27 26 25 24 24 23 22 20 18 17 16 14 13 12 12 12 11 11 11 10 10 9 9 8 8 8 8
23 24 24 25 25 25 25 26 26 27 28 29 30 31 31 31 30 28 28 27 26 26 25 24 22 19 17 16 14 13 12 12 11 11 10 9 9 8 9 9 9 9 9
22 22 22 22 22 22 22 23 24 25 26 27 29 30 31 31 31 31 30 29 28 27 27 26 24 22 20 18 16 14 13 12 11 11 10 9 9 8 9 9 9 9 10
21 21 21 21 21 21 21 22 22 23 24 25 26 28 30 31 32 32 30 29 29 28 27 27 26 23 22 20 18 16 15 13 12 11 10 9 9 8 9 9 9 9 10
19 20 20 20 20 20 21 21 21 21 22 23 24 25 27 29 30 31 31 31 30 30 28 26 27 25 23 21 20 19 17 15 13 12 11 10 9 9 9 9 9 10 10
18 18 19 19 19 19 19 19 19 19 20 20 21 23 25 26 28 29 30 31 31 30 30 28 26 26 24 22 21 21 19 17 15 13 13 12 11 10 10 10 10 10 11
17 18 19 19 19 19 19 18 18 19 19 19 20 20 22 23 25 27 28 29 30 30 30 30 29 28 26 24 23 22 21 19 18 16 14 13 13 12 11 10 11 11 11
17 18 18 19 18 18 18 17 17 18 18 19 19 19 20 20 21 23 26 27 28 28 28 28 28 29 29 26 25 24 23 21 19 17 16 15 14 13 12 11 12 12 12
17 18 18 19 19 18 17 17 16 16 16 16 16 16 17 18 18 20 22 24 26 27 27 28 28 27 28 28 28 26 24 23 23 20 19 17 16 15 14 13 13 13 13
16 17 18 18 19 18 18 17 17 17 16 15 14 14 14 15 16 17 19 21 22 24 26 27 27 28 27 28 29 28 26 25 24 23 22 20 18 17 16 15 15 15 15
15 16 17 18 19 19 19 18 17 17 15 14 13 12 11 12 13 14 15 17 19 21 23 25 26 26 27 28 29 29 28 27 26 25 24 23 22 20 19 17 17 16 16
15 16 17 18 19 20 20 19 18 17 16 14 13 12 10 10 10 11 12 14 16 17 19 22 24 26 26 27 28 29 30 29 28 26 26 26 25 23 22 21 20 18 18
14 16 17 19 20 20 20 20 19 18 17 16 15 13 11 9 8 8 9 11 13 15 17 19 21 23 25 26 27 29 30 31 31 28 28 28 27 26 25 24 23 21 20
14 16 17 19 19 20 20 21 20 20 18 17 16 15 12 10 8 6 7 8 10 12 14 17 19 21 23 25 27 27 29 31 32 31 30 29 30 29 28 27 26 25 24
13 15 17 18 19 20 20 21 21 21 20 19 18 16 14 12 9 6 5 6 8 9 12 14 17 19 21 24 26 28 29 30 31 30 31 31 32 32 31 31 29 28 26
12 14 16 17 18 19 20 20 21 21 20 20 18 17 15 14 11 9 7 5 6 7 10 12 14 17 20 22 24 26 28 29 31 32 32 32 32 33 32 32 31 31 30
12 13 15 17 18 19 20 20 20 20 20 20 20 18 16 15 13 11 9 7 6 5 7 9 12 15 18 20 22 25 27 28 29 32 34 34 34 34 35 35 34 34 33
11 12 14 16 17 18 19 20 20 20 20 20 20 18 17 15 14 12 11 9 7 5 5 7 9 12 15 18 20 23 25 27 29 29 33 34 35 35 36 37 37 37 36
10 12 14 15 17 18 19 19 20 20 20 19 19 18 17 16 15 13 12 11 9 7 5 5 7 10 13 15 17 20 23 26 29 29 30 33 36 38 38 39 39 39 39
Wind_Direction
323 321 319 312 310 309 308 307 304 299 294 289 284 276 263 254 249 243 242 246 251 255 257 255 256 258 261 264 265 267 270 271 271 272 275 278 282 289 295 300 305 313 320
311 310 309 307 305 304 303 300 298 295 291 287 284 278 270 263 258 254 248 247 251 255 255 254 256 258 259 262 264 266 269 269 268 271 273 276 277 283 287 290 293 297 300
305 302 298 297 296 295 294 292 290 289 285 282 280 277 271 266 262 259 254 253 253 254 255 254 255 258 260 262 263 265 267 268 267 269 271 273 274 277 280 282 282 283 282
301 297 292 291 291 289 286 284 283 281 280 278 277 275 272 269 266 261 257 255 255 254 253 254 256 258 260 262 263 264 265 265 266 268 269 270 271 272 275 276 272 271 261
299 295 290 288 287 285 282 280 278 276 275 274 273 271 270 268 265 262 259 255 254 253 253 254 254 256 258 260 261 262 262 264 265 267 268 268 270 271 270 269 263 251 239
296 294 290 287 284 281 279 277 274 273 271 270 268 266 266 266 263 260 258 256 253 253 253 253 253 254 256 257 258 259 260 263 264 267 267 268 269 268 264 258 247 237 225
296 294 292 289 287 284 280 277 274 272 270 267 264 263 262 263 261 258 256 255 254 252 252 252 251 251 251 252 255 257 259 261 263 264 266 267 265 264 257 244 234 230 220
298 296 295 294 292 288 284 280 276 273 271 268 265 262 260 260 259 257 255 255 252 252 251 250 249 249 247 247 250 251 254 258 259 261 262 262 259 258 248 236 228 223 214
300 299 298 297 295 291 288 285 281 277 272 269 266 263 261 258 256 256 257 255 254 252 251 250 248 246 244 242 243 245 248 253 255 255 254 255 255 247 235 227 220 216 212
307 307 306 304 301 298 294 290 285 281 276 272 268 264 261 258 256 255 254 254 252 252 250 248 246 243 241 240 239 240 244 248 250 249 247 247 245 238 226 221 214 209 207
317 316 315 314 310 305 300 296 291 286 281 277 272 267 263 260 257 255 253 252 250 251 249 246 245 241 238 236 234 237 240 242 244 243 240 237 235 231 222 215 209 205 202
323 321 321 319 316 311 306 302 297 292 286 281 275 270 266 262 258 256 254 252 249 248 247 246 244 241 237 235 232 235 235 235 236 237 235 232 227 222 219 213 205 202 198
329 329 328 326 323 319 314 307 301 297 292 286 281 275 269 264 260 256 253 251 249 247 245 244 241 240 237 236 232 232 232 230 230 232 231 228 222 218 213 208 202 198 197
338 339 337 335 331 327 322 316 308 303 298 291 285 280 273 268 261 257 252 249 247 244 242 244 241 240 238 236 234 232 230 231 229 228 228 226 220 215 213 211 206 201 200
350 349 348 345 340 335 331 326 319 312 306 298 291 283 276 271 265 258 252 247 245 242 240 240 241 240 237 234 232 233 230 229 227 226 226 224 220 217 216 217 211 205 204
359 358 357 354 350 346 341 337 332 326 319 311 301 289 279 271 266 259 253 248 245 243 240 236 238 240 236 231 228 228 227 226 226 225 225 223 222 221 218 216 214 210 206
8 7 5 4 2 358 353 348 342 338 331 324 316 302 287 275 266 260 253 249 245 242 238 235 236 238 236 233 227 225 226 227 226 225 224 223 223 222 220 219 218 215 210
16 14 12 11 9 7 4 359 354 350 345 339 333 323 306 288 273 262 254 249 247 244 240 236 236 236 236 234 229 227 227 226 225 224 225 225 225 224 223 221 218 218 215
22 21 19 17 15 13 11 8 4 0 357 353 347 339 325 307 287 269 255 250 249 246 241 236 233 233 232 232 231 228 227 226 225 225 226 225 224 225 226 225 222 219 217
28 25 23 21 19 18 16 13 10 8 5 2 358 354 346 331 308 285 262 253 248 246 242 238 234 233 232 230 230 229 228 227 226 225 227 226 227 227 227 226 223 221 220
29 26 24 22 20 19 18 17 15 13 12 9 7 5 2 356 340 310 278 262 254 251 244 239 236 235 233 232 231 230 229 228 228 228 228 229 229 229 229 226 225 224 222
29 25 23 22 20 18 18 17 17 16 15 14 13 11 8 6 2 347 312 284 269 256 249 243 238 236 235 234 233 234 233 230 229 230 230 230 229 229 228 227 226 225 223
28 25 22 21 20 18 18 18 17 16 15 15 14 13 12 11 9 3 350 322 293 267 253 246 240 237 235 235 234 234 234 234 234 233 231 231 231 229 228 228 227 228 227
26 23 22 21 19 17 16 16 15 15 14 15 15 15 14 13 12 9 4 353 332 294 265 252 243 240 238 237 236 236 235 235 237 236 235 234 234 231 229 229 229 229 229
24 21 20 18 16 14 13 13 13 13 13 14 15 16 16 15 13 12 9 3 353 335 298 268 256 249 246 243 240 238 236 236 238 238 236 235 234 233 231 230 230 230 230
20 18 16 15 13 12 11 10 11 11 11 12 13 13 13 14 13 13 12 9 2 350 331 299 275 262 253 250 246 243 241 240 239 239 239 236 234 234 233 231 232 233 232